When you browse on this site, cookies collect data to enhance your experience and personalize the content and advertising you see.
Visit our Privacy Policy to learn more. By continuing to use the site, you agree to this use of cookies and data.
  • In Österreich
  • Länderverzeichnis
  • Für 7 Tage
  • Wassertemperatur
  • Satellitenkarten
  • Wetterkarte
  • News
  • Widgets
  • user-avatar
    Anmelden

    Stündliche Wetter Rosignol

    Heute, 21 März, Donnerstag

    Zeit Temperatur Niederschläge Wind Luftdruck Luftfeuchtigkeit
    00:00 +26°C° 0 mm 3 m/S 759 mmHg 86%
    01:00 +26°C° 0 mm 3 m/S 758 mmHg 88%
    02:00 +26°C° 0 mm 3 m/S 758 mmHg 89%
    03:00 +26°C° 0.1 mm 3 m/S 758 mmHg 89%
    04:00 +26°C° 0.1 mm 3 m/S 758 mmHg 89%
    05:00 +26°C° 0.1 mm 2 m/S 758 mmHg 89%
    06:00 +27°C° 0 mm 3 m/S 758 mmHg 83%
    07:00 +28°C° 0 mm 3 m/S 759 mmHg 78%
    08:00 +29°C° 0 mm 3 m/S 759 mmHg 73%
    09:00 +30°C° 0.1 mm 3 m/S 759 mmHg 66%
    10:00 +33°C° 0.1 mm 3 m/S 760 mmHg 60%
    11:00 +34°C° 0.1 mm 3 m/S 760 mmHg 53%
    12:00 +34°C° 0 mm 3 m/S 759 mmHg 53%
    13:00 +34°C° 0 mm 3 m/S 758 mmHg 52%
    14:00 +34°C° 0 mm 3 m/S 758 mmHg 52%
    15:00 +33°C° 0 mm 3 m/S 757 mmHg 57%
    16:00 +31°C° 0 mm 3 m/S 757 mmHg 61%
    17:00 +30°C° 0 mm 3 m/S 757 mmHg 66%
    18:00 +29°C° 0 mm 3 m/S 757 mmHg 72%
    19:00 +28°C° 0 mm 3 m/S 757 mmHg 78%
    20:00 +27°C° 0 mm 3 m/S 758 mmHg 83%
    21:00 +27°C° 0 mm 3 m/S 758 mmHg 84%
    22:00 +27°C° 0 mm 3 m/S 759 mmHg 85%
    23:00 +26°C° 0 mm 3 m/S 759 mmHg 86%

    Morgen, 22 März, Freitag

    Zeit Temperatur Niederschläge Wind Luftdruck Luftfeuchtigkeit
    00:00 +26°C° 0 mm 2 m/S 759 mmHg 87%
    01:00 +26°C° 0 mm 2 m/S 758 mmHg 87%
    02:00 +26°C° 0 mm 2 m/S 758 mmHg 88%
    03:00 +26°C° 0 mm 2 m/S 758 mmHg 89%
    04:00 +26°C° 0 mm 2 m/S 758 mmHg 89%
    05:00 +26°C° 0 mm 2 m/S 758 mmHg 89%
    06:00 +27°C° 0 mm 3 m/S 758 mmHg 84%
    07:00 +28°C° 0 mm 3 m/S 759 mmHg 78%
    08:00 +29°C° 0 mm 3 m/S 760 mmHg 72%
    09:00 +30°C° 0.1 mm 3 m/S 760 mmHg 67%
    10:00 +33°C° 0.1 mm 4 m/S 760 mmHg 62%
    11:00 +34°C° 0.1 mm 4 m/S 760 mmHg 57%
    12:00 +34°C° 0.1 mm 4 m/S 759 mmHg 57%
    13:00 +34°C° 0.1 mm 4 m/S 758 mmHg 57%
    14:00 +34°C° 0.1 mm 4 m/S 757 mmHg 56%
    15:00 +33°C° 0 mm 4 m/S 757 mmHg 61%
    16:00 +32°C° 0 mm 4 m/S 757 mmHg 65%
    17:00 +30°C° 0 mm 4 m/S 757 mmHg 69%
    18:00 +29°C° 0 mm 4 m/S 757 mmHg 74%
    19:00 +28°C° 0 mm 4 m/S 758 mmHg 78%
    20:00 +27°C° 0 mm 4 m/S 758 mmHg 83%
    21:00 +27°C° 0 mm 3 m/S 759 mmHg 83%
    22:00 +27°C° 0 mm 3 m/S 759 mmHg 84%
    23:00 +27°C° 0 mm 3 m/S 760 mmHg 84%

    übermorgen, 23 März, Samstag

    Zeit Temperatur Niederschläge Wind Luftdruck Luftfeuchtigkeit
    00:00 +26°C° 0 mm 3 m/S 759 mmHg 85%
    01:00 +26°C° 0 mm 3 m/S 759 mmHg 86%
    02:00 +26°C° 0 mm 3 m/S 758 mmHg 87%
    03:00 +26°C° 0 mm 3 m/S 758 mmHg 87%
    04:00 +26°C° 0 mm 3 m/S 758 mmHg 88%
    05:00 +26°C° 0 mm 3 m/S 758 mmHg 88%
    06:00 +27°C° 0.1 mm 3 m/S 759 mmHg 83%
    07:00 +28°C° 0.1 mm 3 m/S 759 mmHg 78%
    08:00 +29°C° 0.1 mm 4 m/S 760 mmHg 74%
    09:00 +30°C° 0.1 mm 4 m/S 760 mmHg 68%
    10:00 +32°C° 0.1 mm 4 m/S 760 mmHg 62%
    11:00 +33°C° 0.1 mm 4 m/S 760 mmHg 56%
    12:00 +34°C° 0 mm 4 m/S 759 mmHg 55%
    13:00 +34°C° 0 mm 4 m/S 759 mmHg 54%
    14:00 +34°C° 0 mm 4 m/S 758 mmHg 53%
    15:00 +33°C° 0 mm 4 m/S 758 mmHg 57%
    16:00 +32°C° 0 mm 4 m/S 757 mmHg 62%
    17:00 +30°C° 0 mm 4 m/S 757 mmHg 67%
    18:00 +29°C° 0 mm 4 m/S 758 mmHg 72%
    19:00 +28°C° 0 mm 4 m/S 758 mmHg 76%
    20:00 +27°C° 0 mm 4 m/S 758 mmHg 81%
    21:00 +27°C° 0 mm 4 m/S 759 mmHg 82%
    22:00 +27°C° 0 mm 4 m/S 759 mmHg 82%
    23:00 +27°C° 0 mm 4 m/S 759 mmHg 83%

    24 März, Sonntag

    Zeit Temperatur Niederschläge Wind Luftdruck Luftfeuchtigkeit
    00:00 +27°C° 0.1 mm 4 m/S 759 mmHg 85%
    01:00 +26°C° 0.1 mm 3 m/S 758 mmHg 86%
    02:00 +26°C° 0.1 mm 3 m/S 758 mmHg 88%
    03:00 +26°C° 0.2 mm 3 m/S 758 mmHg 89%
    04:00 +26°C° 0.2 mm 3 m/S 758 mmHg 89%
    05:00 +26°C° 0.2 mm 3 m/S 758 mmHg 90%
    06:00 +26°C° 0.3 mm 3 m/S 759 mmHg 86%
    07:00 +27°C° 0.3 mm 3 m/S 760 mmHg 81%
    08:00 +28°C° 0.3 mm 4 m/S 760 mmHg 77%
    09:00 +29°C° 0.3 mm 4 m/S 760 mmHg 74%
    10:00 +30°C° 0.3 mm 4 m/S 760 mmHg 70%
    11:00 +30°C° 0.3 mm 4 m/S 760 mmHg 67%
    12:00 +32°C° 0 mm 4 m/S 759 mmHg 63%
    13:00 +33°C° 0 mm 4 m/S 758 mmHg 59%
    14:00 +34°C° 0 mm 4 m/S 757 mmHg 55%
    15:00 +33°C° 0 mm 4 m/S 757 mmHg 59%
    16:00 +32°C° 0 mm 4 m/S 757 mmHg 64%
    17:00 +30°C° 0 mm 4 m/S 757 mmHg 68%
    18:00 +29°C° 0 mm 4 m/S 757 mmHg 72%
    19:00 +28°C° 0 mm 4 m/S 758 mmHg 77%
    20:00 +27°C° 0 mm 4 m/S 758 mmHg 82%
    21:00 +27°C° 0 mm 4 m/S 758 mmHg 82%
    22:00 +27°C° 0 mm 4 m/S 758 mmHg 83%
    23:00 +27°C° 0 mm 4 m/S 759 mmHg 83%

    25 März, Montag

    Zeit Temperatur Niederschläge Wind Luftdruck Luftfeuchtigkeit
    00:00 +27°C° 0 mm 4 m/S 758 mmHg 84%
    01:00 +27°C° 0 mm 3 m/S 758 mmHg 85%
    02:00 +26°C° 0 mm 3 m/S 758 mmHg 86%
    03:00 +26°C° 0.1 mm 3 m/S 758 mmHg 87%
    04:00 +26°C° 0.1 mm 3 m/S 758 mmHg 88%
    05:00 +26°C° 0.1 mm 3 m/S 758 mmHg 89%
    06:00 +27°C° 0.1 mm 3 m/S 759 mmHg 84%
    07:00 +28°C° 0.1 mm 3 m/S 759 mmHg 79%
    08:00 +29°C° 0.1 mm 4 m/S 760 mmHg 73%
    09:00 +30°C° 0.1 mm 4 m/S 759 mmHg 68%
    10:00 +32°C° 0.1 mm 4 m/S 759 mmHg 62%
    11:00 +34°C° 0.1 mm 4 m/S 759 mmHg 57%
    12:00 +34°C° 0 mm 4 m/S 758 mmHg 56%
    13:00 +34°C° 0 mm 4 m/S 757 mmHg 56%
    14:00 +34°C° 0 mm 4 m/S 756 mmHg 55%
    15:00 +33°C° 0 mm 4 m/S 756 mmHg 60%
    16:00 +32°C° 0 mm 4 m/S 756 mmHg 64%
    17:00 +30°C° 0 mm 4 m/S 756 mmHg 68%
    18:00 +29°C° 0 mm 4 m/S 757 mmHg 72%
    19:00 +28°C° 0 mm 4 m/S 757 mmHg 77%
    20:00 +27°C° 0 mm 4 m/S 758 mmHg 81%
    21:00 +27°C° 0 mm 4 m/S 758 mmHg 81%
    22:00 +27°C° 0 mm 4 m/S 758 mmHg 82%
    23:00 +27°C° 0 mm 4 m/S 758 mmHg 82%

    26 März, Dienstag

    Zeit Temperatur Niederschläge Wind Luftdruck Luftfeuchtigkeit
    00:00 +27°C° 0 mm 4 m/S 758 mmHg 83%
    01:00 +27°C° 0 mm 3 m/S 758 mmHg 85%
    02:00 +26°C° 0 mm 3 m/S 757 mmHg 86%
    03:00 +26°C° 0.1 mm 3 m/S 758 mmHg 86%
    04:00 +26°C° 0.1 mm 3 m/S 758 mmHg 86%
    05:00 +26°C° 0.1 mm 3 m/S 758 mmHg 85%
    06:00 +27°C° 0 mm 3 m/S 758 mmHg 81%
    07:00 +28°C° 0 mm 3 m/S 759 mmHg 76%
    08:00 +29°C° 0 mm 4 m/S 759 mmHg 71%
    09:00 +30°C° 0.1 mm 4 m/S 759 mmHg 68%
    10:00 +32°C° 0.1 mm 4 m/S 759 mmHg 65%
    11:00 +32°C° 0.1 mm 4 m/S 759 mmHg 62%
    12:00 +33°C° 0 mm 4 m/S 758 mmHg 61%
    13:00 +33°C° 0 mm 4 m/S 758 mmHg 60%
    14:00 +33°C° 0 mm 4 m/S 757 mmHg 59%
    15:00 +32°C° 0 mm 4 m/S 757 mmHg 62%
    16:00 +32°C° 0 mm 4 m/S 757 mmHg 65%
    17:00 +30°C° 0 mm 4 m/S 756 mmHg 67%
    18:00 +29°C° 0 mm 4 m/S 757 mmHg 72%
    19:00 +28°C° 0 mm 4 m/S 758 mmHg 77%
    20:00 +27°C° 0 mm 4 m/S 758 mmHg 82%
    21:00 +27°C° 0 mm 4 m/S 758 mmHg 82%
    22:00 +27°C° 0 mm 4 m/S 759 mmHg 82%
    23:00 +27°C° 0 mm 4 m/S 759 mmHg 82%
    Mehr zeigen